| time (UTC) | temp F | wind direction | speed MPH | gust MPH | rain 1hr in | rain 24hr in | rain mn in | humidity % | barometer mb |
| 20260504100136 | 63 | 350 | 2.0 | 3.0 | 0.00 | 0.00 | 0.00 | 76 | 1013.6 |
| 20260504081529 | 63 | 0 | 1.0 | 3.0 | 0.00 | 0.00 | 0.00 | 71 | 1013.9 |
| 20260504081025 | 63 | 267 | 2.0 | 3.0 | 0.00 | 0.00 | 0.00 | 70 | 1013.9 |
| 20260504080522 | 63 | 112 | 1.0 | 5.0 | 0.00 | 0.00 | 0.00 | 70 | 1014.2 |
| 20260504050334 | 68 | 269 | 0.0 | 2.0 | 0.00 | 0.00 | 0.00 | 61 | 1016.0 |
| 20260504045832 | 68 | 136 | 2.0 | 3.0 | 0.00 | 0.00 | 0.00 | 61 | 1016.0 |
| 20260504045326 | 68 | 306 | 1.0 | 3.0 | 0.00 | 0.00 | 0.00 | 61 | 1015.9 |
| 20260504044824 | 68 | 3 | 0.0 | 2.0 | 0.00 | 0.00 | 0.00 | 61 | 1016.0 |
| 20260504044321 | 68 | 358 | 1.0 | 5.0 | 0.00 | 0.00 | 0.00 | 60 | 1016.1 |
| 20260504043818 | 68 | 74 | 2.0 | 2.0 | 0.00 | 0.00 | 0.00 | 60 | 1016.1 |
| 20260504043315 | 68 | 162 | 1.0 | 3.0 | 0.00 | 0.00 | 0.00 | 60 | 1016.2 |
| 20260504042813 | 68 | 341 | 2.0 | 2.0 | 0.00 | 0.00 | 0.00 | 60 | 1016.2 |
| 20260504042309 | 68 | 4 | 0.0 | 3.0 | 0.00 | 0.00 | 0.00 | 59 | 1016.3 |
| 20260504041805 | 69 | 349 | 1.0 | 2.0 | 0.00 | 0.00 | 0.00 | 59 | 1016.2 |
| 20260504041301 | 69 | 61 | 2.0 | 2.0 | 0.00 | 0.00 | 0.00 | 59 | 1016.1 |
| 20260504040758 | 69 | 30 | 0.0 | 2.0 | 0.00 | 0.00 | 0.00 | 59 | 1016.1 |
| 20260504040255 | 69 | 314 | 0.0 | 3.0 | 0.00 | 0.00 | 0.00 | 59 | 1016.1 |
| 20260504035751 | 69 | 331 | 2.0 | 2.0 | 0.00 | 0.00 | 0.00 | 59 | 1016.1 |
| 20260504035248 | 69 | 6 | 2.0 | 3.0 | 0.00 | 0.00 | 0.00 | 58 | 1016.1 |
| 20260504034745 | 69 | 271 | 2.0 | 4.0 | 0.00 | 0.00 | 0.00 | 58 | 1016.3 |
| 20260504034243 | 69 | 347 | 2.0 | 2.0 | 0.00 | 0.00 | 0.00 | 58 | 1016.4 |
| 20260504033740 | 69 | 350 | 0.0 | 2.0 | 0.00 | 0.00 | 0.00 | 58 | 1016.3 |
| 20260504033238 | 69 | 39 | 0.0 | 3.0 | 0.00 | 0.00 | 0.00 | 57 | 1016.2 |
| 20260504032734 | 70 | 251 | 0.0 | 3.0 | 0.00 | 0.00 | 0.00 | 56 | 1016.2 |
| 20260504032231 | 70 | 337 | 1.0 | 2.0 | 0.00 | 0.00 | 0.00 | 55 | 1016.0 |
| 20260504031728 | 70 | 92 | 2.0 | 2.0 | 0.00 | 0.00 | 0.00 | 55 | 1016.1 |
| 20260504031226 | 71 | 155 | 2.0 | 3.0 | 0.00 | 0.00 | 0.00 | 54 | 1015.9 |
| 20260504030721 | 71 | 18 | 2.0 | 4.0 | 0.00 | 0.00 | 0.00 | 53 | 1015.8 |
| 20260504030219 | 71 | 95 | 0.0 | 2.0 | 0.00 | 0.00 | 0.00 | 53 | 1015.9 |
| 20260504025715 | 71 | 38 | 0.0 | 3.0 | 0.00 | 0.00 | 0.00 | 53 | 1015.9 |
| 20260504025212 | 71 | 329 | 1.0 | 2.0 | 0.00 | 0.00 | 0.00 | 53 | 1015.7 |
| 20260504024709 | 71 | 297 | 0.0 | 2.0 | 0.00 | 0.00 | 0.00 | 53 | 1015.8 |
| 20260504024205 | 71 | 269 | 0.0 | 2.0 | 0.00 | 0.00 | 0.00 | 52 | 1015.7 |
| 20260504023702 | 72 | 313 | 2.0 | 3.0 | 0.00 | 0.00 | 0.00 | 52 | 1016.0 |
| 20260504023158 | 72 | 134 | 1.0 | 2.0 | 0.00 | 0.00 | 0.00 | 52 | 1016.0 |
| 20260504022654 | 72 | 323 | 2.0 | 3.0 | 0.00 | 0.00 | 0.00 | 51 | 1016.2 |
| 20260504022150 | 72 | 281 | 1.0 | 3.0 | 0.00 | 0.00 | 0.00 | 51 | 1015.8 |
| 20260504021649 | 72 | 139 | 2.0 | 2.0 | 0.00 | 0.00 | 0.00 | 51 | 1015.7 |
| 20260504021145 | 73 | 284 | 1.0 | 2.0 | 0.00 | 0.00 | 0.00 | 50 | 1015.8 |
| 20260504020642 | 73 | 227 | 0.0 | 2.0 | 0.00 | 0.00 | 0.00 | 50 | 1015.9 |
| 20260504020138 | 73 | 291 | 0.0 | 3.0 | 0.00 | 0.00 | 0.00 | 49 | 1016.0 |
| 20260504015635 | 73 | 317 | 1.0 | 2.0 | 0.00 | 0.00 | 0.00 | 49 | 1015.9 |
| 20260504015131 | 73 | 254 | 0.0 | 2.0 | 0.00 | 0.00 | 0.00 | 49 | 1015.6 |
| 20260504014627 | 73 | 263 | 1.0 | 2.0 | 0.00 | 0.00 | 0.00 | 48 | 1015.9 |
| 20260504014125 | 74 | 259 | 2.0 | 3.0 | 0.00 | 0.00 | 0.00 | 48 | 1015.7 |
| 20260504013622 | 74 | 350 | 2.0 | 3.0 | 0.00 | 0.00 | 0.00 | 48 | 1015.7 |
| 20260504013119 | 74 | 318 | 0.0 | 4.0 | 0.00 | 0.00 | 0.00 | 48 | 1015.7 |
| 20260504012616 | 74 | 86 | 1.0 | 3.0 | 0.00 | 0.00 | 0.00 | 47 | 1015.6 |
| 20260504012114 | 75 | 338 | 2.0 | 3.0 | 0.00 | 0.00 | 0.00 | 47 | 1015.5 |
| 20260504011611 | 75 | 301 | 1.0 | 3.0 | 0.00 | 0.00 | 0.00 | 46 | 1015.6 |
| 20260504011107 | 75 | 306 | 2.0 | 3.0 | 0.00 | 0.00 | 0.00 | 45 | 1015.5 |
| 20260504010602 | 75 | 299 | 3.0 | 4.0 | 0.00 | 0.00 | 0.00 | 45 | 1015.6 |
| 20260504010059 | 76 | 302 | 2.0 | 4.0 | 0.00 | 0.00 | 0.00 | 45 | 1015.6 |
| 20260504005555 | 76 | 0 | 2.0 | 4.0 | 0.00 | 0.00 | 0.00 | 45 | 1015.6 |
| 20260504005053 | 76 | 3 | 1.0 | 5.0 | 0.00 | 0.00 | 0.00 | 44 | 1015.6 |
| 20260504004551 | 77 | 245 | 2.0 | 2.0 | 0.00 | 0.00 | 0.00 | 44 | 1015.5 |
| 20260504004047 | 77 | 113 | 0.0 | 3.0 | 0.00 | 0.00 | 0.00 | 43 | 1015.7 |
| 20260504003543 | 78 | 127 | 0.0 | 4.0 | 0.00 | 0.00 | 0.00 | 42 | 1015.6 |
| 20260504003040 | 78 | 340 | 2.0 | 3.0 | 0.00 | 0.00 | 0.00 | 41 | 1015.7 |
| 20260504002537 | 79 | 350 | 1.0 | 4.0 | 0.00 | 0.00 | 0.00 | 40 | 1015.4 |
| 20260504002035 | 79 | 298 | 1.0 | 4.0 | 0.00 | 0.00 | 0.00 | 40 | 1015.5 |
| 20260504001532 | 80 | 333 | 2.0 | 6.0 | 0.00 | 0.00 | 0.00 | 40 | 1015.5 |
| 20260504001028 | 80 | 271 | 1.0 | 5.0 | 0.00 | 0.00 | 0.00 | 40 | 1015.6 |
| 20260504000526 | 81 | 316 | 2.0 | 4.0 | 0.00 | 0.00 | 0.00 | 39 | 1015.5 |
| 20260504000023 | 81 | 78 | 3.0 | 3.0 | 0.00 | 0.00 | 0.00 | 38 | 1015.4 |
| 20260503235521 | 82 | 354 | 2.0 | 4.0 | 0.00 | 0.00 | 0.00 | 39 | 1015.7 |
| 20260503235018 | 81 | 293 | 2.0 | 3.0 | 0.00 | 0.00 | 0.00 | 40 | 1015.7 |
| 20260503234515 | 81 | 202 | 3.0 | 6.0 | 0.00 | 0.00 | 0.00 | 39 | 1015.8 |
| 20260503234014 | 82 | 238 | 0.0 | 6.0 | 0.00 | 0.00 | 0.00 | 39 | 1015.8 |
| 20260503233510 | 82 | 300 | 1.0 | 3.0 | 0.00 | 0.00 | 0.00 | 38 | 1015.9 |
| 20260503233006 | 82 | 331 | 2.0 | 5.0 | 0.00 | 0.00 | 0.00 | 38 | 1015.8 |
| 20260503232503 | 83 | 37 | 3.0 | 4.0 | 0.00 | 0.00 | 0.00 | 36 | 1015.9 |
| 20260503232000 | 82 | 272 | 1.0 | 4.0 | 0.00 | 0.00 | 0.00 | 38 | 1015.9 |
| 20260503231458 | 82 | 295 | 2.0 | 5.0 | 0.00 | 0.00 | 0.00 | 38 | 1015.9 |
| 20260503230954 | 81 | 331 | 1.0 | 6.0 | 0.00 | 0.00 | 0.00 | 38 | 1015.9 |
| 20260503230451 | 82 | 341 | 0.0 | 5.0 | 0.00 | 0.00 | 0.00 | 38 | 1015.7 |
| 20260503225949 | 83 | 264 | 2.0 | 4.0 | 0.00 | 0.00 | 0.00 | 37 | 1015.9 |
| 20260503225445 | 84 | 327 | 3.0 | 4.0 | 0.00 | 0.00 | 0.00 | 38 | 1016.0 |
| 20260503224941 | 84 | 320 | 3.0 | 5.0 | 0.00 | 0.00 | 0.00 | 38 | 1015.9 |
| 20260503224438 | 84 | 114 | 0.0 | 5.0 | 0.00 | 0.00 | 0.00 | 36 | 1015.9 |
| 20260503223936 | 84 | 30 | 2.0 | 6.0 | 0.00 | 0.00 | 0.00 | 36 | 1016.0 |
| 20260503223433 | 82 | 296 | 1.0 | 3.0 | 0.00 | 0.00 | 0.00 | 37 | 1016.2 |
| 20260503222928 | 84 | 316 | 5.0 | 5.0 | 0.00 | 0.00 | 0.00 | 36 | 1016.1 |
| 20260503222427 | 87 | 333 | 1.0 | 3.0 | 0.00 | 0.00 | 0.00 | 35 | 1016.3 |
| 20260503221925 | 84 | 129 | 2.0 | 4.0 | 0.00 | 0.00 | 0.00 | 37 | 1016.2 |
| 20260503221423 | 85 | 70 | 2.0 | 6.0 | 0.00 | 0.00 | 0.00 | 35 | 1016.4 |
| 20260503220920 | 85 | 10 | 2.0 | 5.0 | 0.00 | 0.00 | 0.00 | 36 | 1016.3 |
| 20260503220416 | 86 | 324 | 2.0 | 4.0 | 0.00 | 0.00 | 0.00 | 35 | 1016.3 |
| 20260503215914 | 86 | 79 | 2.0 | 5.0 | 0.00 | 0.00 | 0.00 | 34 | 1016.4 |
| 20260503215410 | 85 | 290 | 2.0 | 5.0 | 0.00 | 0.00 | 0.00 | 35 | 1016.4 |
| 20260503214908 | 85 | 298 | 2.0 | 4.0 | 0.00 | 0.00 | 0.00 | 35 | 1016.5 |
| 20260503214405 | 86 | 332 | 2.0 | 4.0 | 0.00 | 0.00 | 0.00 | 34 | 1016.4 |
| 20260503213902 | 86 | 105 | 1.0 | 3.0 | 0.00 | 0.00 | 0.00 | 35 | 1016.7 |
| 20260503213400 | 85 | 101 | 4.0 | 6.0 | 0.00 | 0.00 | 0.00 | 34 | 1016.7 |
| 20260503212856 | 84 | 237 | 3.0 | 4.0 | 0.00 | 0.00 | 0.00 | 35 | 1016.9 |
| 20260503212355 | 85 | 97 | 4.0 | 5.0 | 0.00 | 0.00 | 0.00 | 34 | 1016.8 |
| 20260503211851 | 85 | 332 | 1.0 | 4.0 | 0.00 | 0.00 | 0.00 | 34 | 1016.8 |
| 20260503211348 | 86 | 336 | 0.0 | 4.0 | 0.00 | 0.00 | 0.00 | 35 | 1016.9 |
| 20260503210843 | 85 | 25 | 1.0 | 4.0 | 0.00 | 0.00 | 0.00 | 36 | 1017.2 |
| 20260503210341 | 85 | 195 | 0.0 | 5.0 | 0.00 | 0.00 | 0.00 | 35 | 1017.2 |
| 20260503205836 | 84 | 332 | 2.0 | 9.0 | 0.00 | 0.00 | 0.00 | 36 | 1017.4 |
| 20260503205332 | 85 | 276 | 2.0 | 4.0 | 0.00 | 0.00 | 0.00 | 36 | 1017.4 |
| 20260503204829 | 86 | 98 | 3.0 | 4.0 | 0.00 | 0.00 | 0.00 | 35 | 1017.7 |
| 20260503204327 | 85 | 70 | 2.0 | 10.0 | 0.00 | 0.00 | 0.00 | 34 | 1017.7 |
| 20260503203824 | 85 | 19 | 2.0 | 4.0 | 0.00 | 0.00 | 0.00 | 35 | 1017.8 |
| 20260503203321 | 86 | 300 | 4.0 | 4.0 | 0.00 | 0.00 | 0.00 | 34 | 1017.8 |
| 20260503202818 | 83 | 306 | 5.0 | 6.0 | 0.00 | 0.00 | 0.00 | 35 | 1017.9 |
| 20260503202316 | 84 | 113 | 4.0 | 6.0 | 0.00 | 0.00 | 0.00 | 35 | 1017.9 |
| 20260503201814 | 85 | 61 | 3.0 | 6.0 | 0.00 | 0.00 | 0.00 | 35 | 1018.1 |
| 20260503201310 | 85 | 97 | 2.0 | 6.0 | 0.00 | 0.00 | 0.00 | 35 | 1018.2 |
| 20260503200808 | 84 | 106 | 3.0 | 5.0 | 0.00 | 0.00 | 0.00 | 34 | 1018.2 |
| 20260503200303 | 84 | 106 | 1.0 | 12.0 | 0.00 | 0.00 | 0.00 | 33 | 1018.5 |
| 20260503195801 | 84 | 306 | 1.0 | 3.0 | 0.00 | 0.00 | 0.00 | 34 | 1018.2 |
| 20260503195258 | 84 | 316 | 2.0 | 3.0 | 0.00 | 0.00 | 0.00 | 34 | 1018.5 |
| 20260503194755 | 84 | 332 | 4.0 | 6.0 | 0.00 | 0.00 | 0.00 | 34 | 1018.6 |
| 20260503194251 | 82 | 0 | 1.0 | 8.0 | 0.00 | 0.00 | 0.00 | 36 | 1018.7 |
| 20260503193747 | 83 | 146 | 2.0 | 3.0 | 0.00 | 0.00 | 0.00 | 37 | 1018.6 |
| 20260503193243 | 84 | 114 | 4.0 | 5.0 | 0.00 | 0.00 | 0.00 | 34 | 1018.7 |
| 20260503192739 | 84 | 331 | 3.0 | 5.0 | 0.00 | 0.00 | 0.00 | 37 | 1018.7 |
| 20260503192234 | 84 | 153 | 2.0 | 6.0 | 0.00 | 0.00 | 0.00 | 36 | 1018.7 |
| 20260503191731 | 84 | 331 | 0.0 | 4.0 | 0.00 | 0.00 | 0.00 | 38 | 1018.9 |
| 20260503191229 | 83 | 116 | 6.0 | 6.0 | 0.00 | 0.00 | 0.00 | 39 | 1018.9 |
| 20260503190726 | 84 | 276 | 2.0 | 4.0 | 0.00 | 0.00 | 0.00 | 36 | 1019.1 |
| 20260503190222 | 83 | 350 | 2.0 | 4.0 | 0.00 | 0.00 | 0.00 | 37 | 1019.3 |
| 20260503185719 | 83 | 104 | 3.0 | 6.0 | 0.00 | 0.00 | 0.00 | 38 | 1019.3 |
| 20260503185215 | 82 | 290 | 0.0 | 5.0 | 0.00 | 0.00 | 0.00 | 39 | 1019.3 |
| 20260503184709 | 83 | 114 | 2.0 | 6.0 | 0.00 | 0.00 | 0.00 | 39 | 1019.4 |
| 20260503184206 | 83 | 287 | 0.0 | 5.0 | 0.00 | 0.00 | 0.00 | 38 | 1019.4 |
| 20260503183703 | 82 | 151 | 2.0 | 10.0 | 0.00 | 0.00 | 0.00 | 38 | 1019.6 |
| 20260503183200 | 82 | 41 | 3.0 | 8.0 | 0.00 | 0.00 | 0.00 | 42 | 1019.4 |
| 20260503182658 | 82 | 114 | 3.0 | 9.0 | 0.00 | 0.00 | 0.00 | 40 | 1019.7 |
| 20260503182156 | 82 | 108 | 4.0 | 6.0 | 0.00 | 0.00 | 0.00 | 38 | 1019.8 |
| 20260503181652 | 83 | 5 | 3.0 | 4.0 | 0.00 | 0.00 | 0.00 | 41 | 1020.1 |
| 20260503181149 | 82 | 78 | 2.0 | 5.0 | 0.00 | 0.00 | 0.00 | 41 | 1019.9 |
| 20260503180646 | 81 | 45 | 3.0 | 5.0 | 0.00 | 0.00 | 0.00 | 42 | 1020.1 |
| 20260503180144 | 81 | 105 | 7.0 | 9.0 | 0.00 | 0.00 | 0.00 | 42 | 1020.3 |
| 20260503175641 | 80 | 91 | 4.0 | 10.0 | 0.00 | 0.00 | 0.00 | 42 | 1020.3 |
| 20260503175138 | 81 | 85 | 2.0 | 5.0 | 0.00 | 0.00 | 0.00 | 42 | 1020.3 |
| 20260503174634 | 81 | 132 | 2.0 | 7.0 | 0.00 | 0.00 | 0.00 | 42 | 1020.3 |
| 20260503174132 | 80 | 159 | 4.0 | 8.0 | 0.00 | 0.00 | 0.00 | 41 | 1020.6 |
| 20260503173627 | 82 | 91 | 2.0 | 4.0 | 0.00 | 0.00 | 0.00 | 43 | 1020.6 |
| 20260503173124 | 82 | 51 | 2.0 | 5.0 | 0.00 | 0.00 | 0.00 | 42 | 1020.6 |
| 20260503172620 | 81 | 124 | 3.0 | 4.0 | 0.00 | 0.00 | 0.00 | 44 | 1020.7 |
| 20260503172118 | 80 | 289 | 2.0 | 4.0 | 0.00 | 0.00 | 0.00 | 45 | 1020.8 |
| 20260503171614 | 79 | 31 | 2.0 | 7.0 | 0.00 | 0.00 | 0.00 | 45 | 1020.8 |
| 20260503171112 | 80 | 92 | 3.0 | 4.0 | 0.00 | 0.00 | 0.00 | 46 | 1021.2 |
| 20260503170609 | 81 | 148 | 0.0 | 5.0 | 0.00 | 0.00 | 0.00 | 44 | 1021.1 |
| 20260503170105 | 80 | 184 | 2.0 | 6.0 | 0.00 | 0.00 | 0.00 | 44 | 1021.0 |
| 20260503151000 | 74 | 78 | 3.0 | 9.0 | 0.00 | 0.00 | 0.00 | 51 | 1021.3 |
| 20260503150457 | 75 | 40 | 1.0 | 6.0 | 0.00 | 0.00 | 0.00 | 51 | 1021.4 |
| 20260503131350 | 67 | 116 | 2.0 | 2.0 | 0.00 | 0.00 | 0.00 | 66 | 1021.0 |
| 20260503130847 | 67 | 22 | 0.0 | 2.0 | 0.00 | 0.00 | 0.00 | 66 | 1021.2 |
| 20260503130344 | 66 | 135 | 0.0 | 2.0 | 0.00 | 0.00 | 0.00 | 67 | 1020.9 |
| 20260503110744 | 52 | 315 | 0.0 | 0.0 | 0.00 | 0.00 | 0.00 | 91 | 1020.4 |
| 20260503110241 | 52 | 123 | 0.0 | 1.0 | 0.00 | 0.00 | 0.00 | 90 | 1020.4 |